Wind_Speed
19 19 19 20 21 23 23 23 23 21 19 20 23 22 23 26 28 33 36 37 39 39 41 43 45 43 44 44 46 51 51 50 53 56 60 62 64 62 60 59 57 58 55 54
18 19 20 22 23 23 25 25 23 19 21 23 25 24 28 30 31 33 36 38 39 42 43 46 45 43 45 48 52 55 53 54 57 61 65 67 67 64 63 62 60 59 58 59
18 20 21 22 23 23 25 25 20 21 20 21 22 28 30 34 36 36 37 37 37 41 43 41 43 45 46 50 54 55 55 57 60 65 68 67 68 66 65 65 64 64 63 62
20 21 22 23 25 26 27 23 24 23 22 19 22 28 32 36 39 40 40 38 38 39 38 40 44 48 50 53 54 53 55 58 62 67 70 71 71 69 69 67 67 68 65 67
20 20 23 25 25 26 27 24 25 26 25 24 26 29 32 35 36 36 36 36 37 40 42 43 47 50 54 52 52 53 58 63 67 71 73 74 73 72 71 70 69 69 69 70
22 21 23 24 25 26 26 25 27 27 26 27 26 27 28 29 32 36 39 40 42 45 46 47 49 51 51 53 56 58 63 67 70 74 77 77 77 76 75 74 73 73 72 72
24 23 22 24 25 27 27 26 25 28 29 28 28 27 27 29 34 39 42 44 47 47 49 51 52 54 56 57 60 62 67 71 76 79 80 80 79 79 78 79 78 77 76 75
27 27 26 24 26 27 27 28 28 27 28 29 29 31 32 33 37 41 45 47 50 51 52 54 56 58 60 62 63 66 73 77 79 80 81 82 81 81 83 83 83 81 82 81
31 30 30 28 26 26 28 28 29 30 30 31 31 33 36 39 43 46 50 52 53 55 56 57 59 60 61 65 68 73 78 79 80 84 83 84 86 87 88 89 87 88 86 83
32 32 30 30 28 27 28 29 31 32 33 35 38 37 38 42 45 48 51 54 55 57 58 60 59 62 65 70 76 78 80 82 83 84 87 89 92 95 93 91 88 84 80 77
32 31 31 31 30 30 30 30 33 35 35 37 40 44 41 43 45 48 52 54 54 58 60 60 63 67 73 79 81 80 83 85 87 91 92 96 95 91 87 83 81 74 68 64
34 33 33 32 33 34 34 34 34 36 38 41 43 48 48 48 49 52 54 54 58 62 63 66 71 75 79 80 81 85 86 90 93 96 100 95 87 79 75 72 71 66 62 67
38 39 37 38 37 38 37 37 36 38 40 44 47 50 54 56 55 54 54 59 61 65 68 73 78 81 81 86 87 88 92 96 101 102 93 81 73 70 68 65 66 64 64 65
44 45 45 43 41 40 41 41 40 41 44 47 51 53 56 54 55 56 59 62 67 71 76 80 81 84 88 88 90 94 99 104 103 93 82 78 77 76 71 61 60 62 61 57
46 48 49 46 44 44 47 47 48 46 46 48 51 53 55 57 58 59 61 68 74 78 80 83 85 91 93 93 98 102 107 104 95 89 86 88 84 80 73 63 58 56 52 48
41 43 46 45 42 41 43 47 51 50 53 54 54 56 57 59 61 63 68 74 79 83 84 87 91 96 98 102 104 109 107 99 93 94 93 90 82 73 64 56 51 48 45 40
42 43 44 45 44 42 44 49 51 52 54 57 58 59 60 59 64 70 76 78 80 83 87 92 95 99 102 105 111 108 103 97 98 99 94 86 73 62 54 47 44 41 38 36
47 49 47 46 47 48 51 53 54 54 55 57 58 58 61 67 72 74 77 79 83 87 92 95 98 102 103 108 104 100 99 100 99 94 85 73 62 53 44 40 38 35 35 38
45 48 50 49 49 51 52 56 58 58 60 61 63 65 69 71 72 77 79 83 87 90 93 96 100 103 105 99 96 97 99 99 93 81 70 60 50 41 35 35 34 36 39 39
47 49 51 51 52 53 58 61 64 64 68 67 69 70 70 71 75 79 83 86 88 93 95 98 101 96 93 92 94 98 97 90 78 64 54 45 38 33 32 35 38 39 38 38
57 56 57 58 58 58 61 63 66 67 67 69 70 71 73 76 80 83 85 88 91 95 95 91 87 87 88 90 96 95 87 75 63 49 39 34 32 32 36 39 38 38 36 27
58 58 59 60 60 59 62 63 67 68 68 70 73 76 79 82 84 87 87 90 91 88 85 81 80 83 87 91 89 83 73 59 45 35 29 30 34 38 39 40 36 29 21 15
54 55 56 58 60 62 63 66 69 71 72 75 77 80 83 84 86 86 88 85 84 79 75 75 79 83 83 84 78 70 57 41 30 24 26 33 38 41 38 33 27 19 14 13
63 63 64 64 65 66 67 69 72 76 76 79 80 83 85 86 85 80 74 70 69 68 70 72 75 76 78 75 65 57 39 26 19 22 30 35 40 36 32 28 23 19 19 21
72 71 71 71 72 72 72 73 76 79 79 80 79 80 80 75 64 61 58 59 63 65 65 69 72 73 72 63 56 41 26 15 16 23 30 34 33 30 28 28 28 27 27 27
72 72 72 73 75 76 75 73 71 69 69 67 64 61 55 48 48 50 52 57 60 62 65 68 70 71 65 55 45 27 14 8 15 23 26 30 26 26 28 31 28 28 27 27
Wind_Direction
282 292 294 285 279 277 286 294 289 289 289 284 279 279 284 283 284 288 291 294 292 295 299 300 300 307 310 311 313 315 317 319 324 326 330 332 333 330 327 324 321 319 316 313
288 291 286 280 285 296 299 289 290 293 289 290 291 293 291 289 288 286 286 287 290 293 298 299 301 311 313 314 316 319 318 321 324 328 330 330 329 326 323 321 318 315 314 314
294 294 295 296 295 292 289 292 284 278 282 278 287 288 289 291 291 292 291 291 292 296 300 306 313 314 315 316 317 318 319 322 324 325 326 325 324 321 320 319 316 315 315 314
296 298 298 294 293 295 295 289 285 285 277 277 280 285 291 293 296 296 298 301 303 304 306 312 317 319 320 317 317 317 317 318 320 320 321 321 319 319 318 317 315 314 313 312
303 299 294 296 298 296 297 294 292 290 291 293 294 293 296 296 299 303 308 311 311 311 312 318 322 319 318 316 315 312 313 316 316 315 316 316 318 318 316 314 313 313 312 313
298 305 298 300 297 294 294 291 291 293 292 293 295 297 298 301 303 306 309 310 310 310 313 317 319 320 315 312 311 312 313 313 314 314 315 315 317 316 314 313 313 312 311 311
292 297 294 294 294 293 296 291 291 294 299 297 296 293 292 293 299 303 306 308 311 309 310 312 313 314 314 312 313 313 312 312 312 313 313 314 314 314 313 313 312 310 309 308
281 285 289 291 295 300 297 298 297 297 295 295 293 294 293 293 294 298 301 303 303 308 307 307 311 313 314 311 311 310 311 311 312 313 314 314 313 314 312 311 309 307 305 304
279 282 289 290 292 297 298 297 297 300 300 297 296 294 294 294 295 298 301 302 304 304 309 311 312 313 310 309 310 312 312 314 315 315 315 314 313 312 310 307 306 304 301 300
275 276 282 285 287 291 295 296 297 297 300 303 300 298 297 297 299 301 302 303 304 308 310 310 310 309 309 310 312 314 315 314 315 314 313 312 312 311 310 307 305 304 302 300
265 269 277 277 281 286 292 296 297 298 298 298 298 298 298 299 300 300 300 300 305 309 308 308 308 309 309 311 312 314 316 317 315 314 314 313 313 312 311 310 310 310 308 305
265 267 271 277 282 284 286 288 293 296 297 298 298 296 298 298 296 297 299 299 305 307 308 308 308 310 314 315 315 315 316 315 314 314 314 315 315 313 313 311 310 308 306 307
264 265 265 270 277 282 283 287 290 293 294 294 293 296 299 302 304 304 303 305 307 307 308 308 312 315 316 316 317 315 314 314 316 318 317 315 315 317 314 313 310 309 309 311
268 269 270 272 275 279 281 281 285 289 289 292 294 298 300 302 304 303 304 307 308 309 312 313 313 315 315 316 315 315 316 319 320 319 321 321 321 321 318 314 311 307 309 311
270 271 274 277 279 282 286 287 286 288 288 289 292 295 298 301 301 303 305 308 310 311 311 312 313 316 316 316 317 319 321 321 323 323 325 324 321 319 318 316 311 309 311 314
272 273 275 278 281 282 283 284 286 288 288 292 294 295 297 299 301 302 305 308 309 311 313 313 314 316 317 319 320 320 322 325 325 324 324 320 318 316 315 314 312 310 312 312
268 273 276 278 282 283 284 284 289 292 292 292 295 297 299 301 303 304 307 310 311 312 312 313 314 316 319 320 320 323 324 324 325 323 321 319 316 313 314 313 313 315 313 312
273 273 275 276 278 284 287 288 288 290 292 294 296 298 299 301 304 308 309 310 310 311 313 314 316 318 318 320 322 322 323 323 322 321 321 318 315 313 314 315 317 316 315 313
269 268 273 276 279 282 285 287 289 290 291 294 296 298 301 305 306 306 308 309 310 312 314 314 316 317 320 321 321 321 322 321 322 323 323 323 322 319 322 322 320 318 315 315
273 277 278 277 279 282 284 288 289 289 290 293 296 300 302 303 304 305 307 308 310 311 312 313 317 319 318 319 318 321 323 324 326 326 327 328 329 333 331 324 319 318 317 321
274 275 279 282 284 285 285 287 288 291 294 297 298 298 300 301 303 304 306 307 309 311 314 317 316 316 317 318 319 323 324 327 328 330 333 337 340 337 330 324 323 322 323 326
274 275 278 281 283 285 287 288 289 290 293 294 296 298 299 301 303 304 306 307 310 312 314 315 314 318 317 317 320 324 325 327 330 336 346 346 341 337 334 333 330 332 337 349
277 278 278 279 280 282 283 285 287 290 291 293 295 297 298 299 301 304 304 309 310 312 312 315 317 316 317 319 325 323 329 327 335 347 352 348 345 345 345 346 347 359 18 38
279 280 279 279 280 281 283 284 286 287 289 291 292 294 295 297 300 305 306 308 310 313 314 314 315 316 318 324 325 327 327 330 346 356 356 354 352 355 360 8 19 41 65 80
276 279 281 281 282 282 282 282 283 286 288 290 290 290 293 299 302 303 307 309 309 310 313 316 318 320 326 328 323 329 322 342 353 3 1 359 2 10 24 37 51 69 83 91
279 281 282 282 284 285 287 287 287 283 283 285 288 291 298 300 304 307 306 307 307 313 318 321 323 327 328 327 328 325 321 5 3 6 4 7 11 21 36 50 62 73 80 88
Height
10899 10899 10899 10898 10898 10898 10897 10896 10894 10893 10893 10891 10890 10889 10886 10883 10881 10878 10875 10871 10867 10862 10857 10852 10847 10842 10837 10833 10829 10824 10815 10809 10802 10793 10783 10773 10764 10755 10748 10742 10735 10725 10719 10712
10896 10895 10896 10895 10894 10894 10892 10890 10889 10889 10888 10886 10883 10881 10878 10878 10877 10874 10870 10867 10863 10856 10852 10846 10841 10836 10830 10822 10816 10809 10802 10795 10786 10775 10766 10758 10753 10745 10738 10732 10724 10716 10707 10697
10892 10892 10891 10890 10889 10888 10887 10887 10886 10885 10886 10884 10880 10875 10873 10870 10868 10866 10863 10861 10858 10850 10845 10837 10832 10827 10821 10815 10807 10798 10790 10781 10772 10765 10758 10752 10746 10739 10730 10719 10710 10701 10691 10681
10888 10887 10886 10884 10883 10883 10883 10883 10882 10883 10883 10881 10877 10872 10869 10864 10861 10858 10855 10852 10848 10842 10836 10831 10826 10820 10814 10808 10799 10790 10782 10774 10766 10758 10750 10743 10735 10726 10716 10706 10695 10685 10675 10665
10884 10884 10882 10880 10880 10879 10878 10878 10877 10877 10875 10874 10871 10868 10864 10859 10853 10850 10846 10843 10839 10834 10828 10824 10818 10812 10805 10799 10791 10783 10774 10764 10758 10749 10742 10733 10722 10712 10701 10692 10682 10671 10658 10648
10880 10880 10879 10877 10876 10874 10874 10874 10872 10871 10870 10868 10866 10864 10858 10853 10849 10844 10839 10835 10831 10826 10821 10817 10812 10806 10798 10790 10782 10774 10765 10757 10748 10739 10729 10719 10709 10698 10687 10676 10666 10654 10642 10632
10876 10875 10874 10873 10871 10871 10870 10868 10867 10865 10864 10863 10861 10858 10855 10850 10844 10838 10833 10828 10823 10818 10815 10811 10806 10798 10790 10781 10772 10765 10756 10747 10736 10726 10716 10704 10693 10682 10670 10658 10647 10635 10624 10614
10870 10870 10869 10868 10867 10866 10864 10863 10862 10861 10860 10857 10855 10852 10849 10845 10839 10833 10828 10822 10817 10814 10808 10802 10796 10788 10779 10770 10763 10755 10745 10735 10725 10713 10700 10687 10675 10663 10651 10639 10627 10616 10605 10594
10865 10864 10863 10863 10861 10861 10859 10858 10857 10855 10853 10850 10849 10846 10842 10838 10832 10826 10820 10813 10810 10803 10798 10791 10784 10777 10768 10760 10752 10742 10731 10719 10707 10694 10682 10670 10658 10646 10632 10619 10606 10594 10582 10572
10858 10858 10858 10857 10857 10855 10854 10853 10852 10850 10848 10844 10840 10838 10834 10829 10824 10818 10811 10804 10798 10793 10787 10780 10774 10765 10757 10747 10738 10727 10716 10705 10692 10679 10666 10652 10638 10622 10609 10593 10581 10568 10558 10548
10849 10851 10851 10850 10850 10850 10848 10847 10845 10842 10840 10837 10833 10826 10826 10821 10817 10811 10803 10795 10789 10783 10777 10770 10762 10755 10745 10734 10724 10713 10700 10686 10674 10659 10645 10630 10614 10597 10582 10567 10555 10546 10536 10528
10843 10843 10844 10844 10844 10843 10842 10840 10838 10835 10832 10828 10825 10816 10815 10813 10809 10802 10795 10788 10781 10773 10765 10758 10750 10742 10730 10718 10708 10696 10683 10669 10654 10640 10622 10603 10588 10575 10563 10550 10539 10530 10520 10512
10834 10834 10836 10837 10837 10835 10834 10833 10831 10828 10825 10820 10815 10810 10803 10797 10793 10787 10782 10776 10769 10761 10753 10744 10733 10722 10712 10700 10690 10677 10664 10650 10632 10614 10597 10581 10568 10556 10545 10534 10523 10513 10504 10495
10825 10825 10826 10829 10829 10827 10825 10824 10823 10820 10816 10811 10803 10800 10792 10789 10782 10776 10769 10762 10754 10746 10737 10725 10716 10707 10696 10686 10672 10660 10643 10626 10607 10588 10573 10559 10547 10535 10524 10515 10506 10497 10488 10480
10816 10814 10815 10818 10819 10818 10815 10812 10809 10809 10805 10801 10796 10790 10784 10778 10773 10767 10760 10749 10739 10731 10722 10711 10700 10688 10677 10665 10650 10634 10617 10602 10583 10565 10552 10539 10527 10516 10506 10497 10488 10481 10474 10468
10808 10808 10807 10808 10809 10809 10806 10802 10797 10796 10791 10787 10784 10779 10775 10769 10762 10755 10747 10739 10727 10716 10706 10694 10682 10669 10655 10642 10628 10611 10593 10575 10561 10546 10535 10521 10508 10497 10488 10481 10473 10467 10461 10456
10799 10798 10798 10799 10799 10799 10795 10789 10788 10785 10778 10773 10771 10767 10763 10757 10750 10742 10733 10723 10713 10702 10691 10679 10667 10652 10639 10622 10605 10587 10571 10557 10543 10528 10514 10500 10489 10480 10473 10467 10460 10456 10450 10446
10792 10790 10790 10791 10790 10789 10783 10778 10777 10774 10766 10761 10759 10756 10752 10744 10735 10727 10718 10709 10698 10686 10675 10661 10648 10636 10622 10606 10588 10572 10556 10542 10527 10511 10496 10483 10473 10465 10460 10455 10450 10446 10441 10437
10784 10783 10782 10782 10779 10777 10771 10766 10763 10761 10753 10752 10748 10743 10737 10731 10722 10712 10704 10695 10684 10672 10660 10647 10635 10621 10604 10589 10574 10558 10545 10528 10512 10497 10482 10470 10462 10456 10451 10446 10442 10438 10432 10425
10772 10771 10770 10770 10770 10768 10759 10754 10749 10748 10741 10741 10736 10730 10724 10718 10708 10700 10691 10682 10671 10659 10647 10636 10620 10606 10591 10578 10563 10548 10533 10514 10499 10486 10473 10464 10457 10452 10446 10441 10435 10429 10421 10415
10760 10760 10760 10757 10757 10756 10748 10743 10735 10732 10730 10723 10719 10715 10710 10703 10695 10687 10678 10668 10656 10645 10633 10621 10608 10595 10582 10565 10549 10537 10519 10505 10492 10480 10471 10464 10456 10450 10444 10436 10427 10418 10411 10406
10749 10750 10749 10747 10744 10743 10735 10730 10721 10719 10717 10711 10705 10699 10694 10687 10680 10672 10663 10652 10641 10631 10621 10610 10598 10586 10569 10554 10541 10527 10512 10499 10488 10480 10472 10464 10457 10449 10439 10429 10419 10411 10406 10402
10738 10737 10736 10734 10731 10728 10723 10717 10711 10706 10703 10699 10693 10686 10679 10673 10666 10660 10649 10638 10627 10618 10610 10597 10585 10573 10557 10544 10533 10517 10506 10496 10488 10481 10474 10466 10457 10446 10435 10425 10415 10409 10404 10401
10721 10720 10719 10717 10715 10713 10710 10704 10699 10692 10689 10684 10678 10671 10664 10659 10654 10645 10636 10626 10616 10607 10598 10588 10577 10563 10549 10537 10523 10512 10502 10494 10490 10483 10475 10467 10457 10447 10437 10428 10418 10411 10407 10406
10701 10704 10704 10702 10698 10695 10692 10689 10683 10678 10674 10669 10664 10657 10652 10647 10640 10632 10626 10616 10606 10599 10590 10579 10566 10552 10540 10527 10514 10505 10499 10494 10491 10484 10477 10470 10461 10453 10444 10434 10426 10421 10418 10417
10689 10687 10684 10680 10677 10675 10674 10670 10667 10662 10658 10655 10650 10645 10641 10633 10628 10623 10618 10610 10599 10592 10580 10568 10555 10542 10530 10518 10508 10501 10498 10496 10492 10486 10480 10472 10466 10460 10452 10442 10438 10433 10430 10429